Wind_Speed
4 3 4 5 6 7 9 10 12 13 3 12 15 10 5 4 4 9 9 11 11 5 5 9 10 8 8 8 6 4 2 1 1 5 3 3 8 11 9 10 10 7 7 16 23 21 22 26 26 30 30 28 29 27 27 27 24 25 29 28 25 23 22 23 21 18 22 20 17 18 17 18 21 22 22 22 22 20 18 17 17 18 17 16 16 16
5 4 5 8 9 10 11 11 12 13 7 6 11 11 7 3 3 8 13 14 10 4 5 10 13 8 7 6 2 2 4 2 2 5 3 4 3 7 9 12 11 6 7 14 18 18 21 25 26 28 28 28 29 27 27 28 25 25 29 27 25 25 23 24 22 19 21 18 17 17 15 16 18 19 20 20 21 19 18 17 16 17 17 16 16 15
5 4 7 10 10 12 12 11 12 12 9 4 8 10 7 3 1 5 11 13 7 3 4 9 11 5 4 5 3 2 3 2 3 3 4 4 2 2 5 10 12 8 8 11 12 15 21 24 26 27 26 29 30 27 27 27 25 25 28 26 25 25 23 24 22 19 19 16 16 16 15 17 17 16 17 18 19 19 18 16 15 16 16 15 15 14
4 5 10 11 10 12 12 12 11 10 8 5 7 8 8 9 6 4 9 11 6 4 7 9 8 3 2 3 3 1 3 4 2 2 5 3 2 2 1 4 10 12 9 10 11 12 18 23 25 25 25 28 30 27 27 27 24 25 28 26 25 24 22 24 23 19 18 17 16 15 15 17 16 15 16 17 17 17 18 17 15 16 15 14 14 13
5 8 12 12 11 11 11 11 10 7 5 6 5 8 9 14 11 6 9 11 5 4 9 11 6 1 1 2 3 1 4 4 1 2 4 1 1 2 2 3 4 11 11 10 12 10 14 21 22 24 26 29 29 26 26 28 25 24 28 26 25 24 21 22 22 19 19 17 16 14 15 17 16 15 16 18 17 17 18 18 16 16 15 13 13 13
7 8 11 12 11 10 10 9 10 8 5 6 5 10 12 12 12 10 12 9 5 2 6 8 4 1 3 3 5 2 3 5 3 4 4 1 2 2 1 4 5 8 12 10 11 11 12 19 22 23 26 28 28 26 26 28 25 24 28 26 24 24 22 22 22 20 19 17 16 16 17 19 19 18 18 19 19 19 18 17 16 17 15 13 12 12
6 9 9 12 11 11 10 8 9 9 4 4 5 15 14 13 13 14 15 9 4 3 10 11 3 3 3 3 5 4 4 6 4 4 5 3 2 2 2 3 5 6 12 11 11 11 13 19 21 21 25 27 27 27 27 27 25 24 28 26 24 25 23 22 22 20 21 19 17 16 16 19 19 19 18 18 19 19 17 16 15 16 16 14 12 11
7 10 8 10 11 9 8 6 8 9 5 3 6 13 12 14 15 14 16 10 5 6 9 12 4 5 3 1 4 5 5 4 3 4 4 3 4 4 4 4 5 4 10 11 12 11 12 20 22 20 24 27 27 28 27 26 25 25 29 27 24 24 23 23 21 20 22 21 19 16 16 18 18 17 16 16 18 17 16 16 16 16 16 15 13 12
8 10 9 8 9 7 6 8 9 6 4 3 4 8 7 13 15 15 13 6 3 6 5 9 6 5 2 3 5 6 6 5 4 5 5 4 5 5 4 6 4 1 3 7 12 12 13 20 24 23 24 26 28 29 27 26 26 26 29 27 24 24 22 22 22 21 22 22 20 18 16 17 16 15 14 14 17 17 16 17 16 15 16 16 14 12
6 9 9 7 6 5 5 5 5 2 3 4 3 6 7 11 11 10 7 3 3 4 4 10 9 5 2 4 6 6 5 5 5 4 4 4 4 4 4 6 4 2 2 2 7 9 14 22 26 25 25 24 27 30 28 26 27 27 28 27 25 24 22 22 22 21 22 22 21 20 17 16 16 15 14 13 16 18 17 17 17 16 16 17 16 13
6 8 9 7 2 3 3 2 4 6 4 5 6 5 6 9 9 6 4 4 4 1 6 13 10 8 3 4 6 5 4 7 6 4 4 4 4 4 5 7 4 4 3 2 4 4 10 21 27 27 25 24 26 30 29 26 27 29 29 27 26 25 23 22 23 22 22 21 21 21 17 16 17 16 15 14 16 18 19 18 18 17 15 15 16 14
9 6 6 3 2 1 3 4 6 8 7 4 5 4 3 5 7 5 2 3 2 2 7 13 8 8 3 4 6 4 4 8 8 5 6 6 5 5 6 7 5 4 4 3 4 4 4 13 21 25 25 23 25 30 28 26 28 30 29 28 25 26 24 23 24 23 22 21 21 21 18 16 17 17 18 16 15 18 18 17 18 18 16 15 15 14
7 3 5 5 1 4 3 3 3 6 5 3 4 4 3 2 3 3 0 2 3 4 6 13 9 6 2 2 5 7 7 7 7 7 9 8 7 7 7 8 4 3 2 3 5 3 2 6 11 19 25 23 23 30 29 26 30 29 29 30 26 26 24 23 25 24 22 22 21 21 20 17 16 16 18 18 16 17 17 17 18 18 17 16 16 16
3 3 3 6 5 5 5 1 1 2 2 2 3 4 4 3 3 2 1 2 4 5 3 11 10 4 1 1 2 7 8 7 7 7 8 9 9 9 7 6 4 3 3 4 5 5 3 4 4 11 23 23 20 30 31 27 30 30 29 30 28 27 25 23 26 26 24 23 21 22 21 18 17 16 17 18 17 17 16 16 16 16 17 17 17 17
4 1 2 4 4 6 6 2 2 2 3 5 4 4 4 3 4 4 4 4 4 5 5 10 7 3 5 3 4 7 8 6 8 6 4 6 8 8 7 6 5 5 3 2 4 5 5 5 4 2 17 23 20 27 31 28 31 31 30 31 28 28 27 24 25 27 25 24 22 22 22 20 19 17 16 16 17 17 17 16 16 15 16 16 15 16
4 2 6 5 4 8 8 3 3 3 3 5 3 2 3 4 4 3 4 7 6 4 4 4 3 2 4 2 1 4 7 5 8 9 6 4 3 4 4 2 2 1 3 3 3 3 4 8 10 9 4 16 17 21 26 27 32 33 30 32 31 28 28 25 26 27 26 25 23 22 22 21 20 19 17 17 16 17 17 16 16 15 15 15 14 14
2 2 8 10 6 7 6 3 4 3 2 4 3 0 3 4 3 2 2 5 5 3 1 1 5 6 5 5 5 2 6 5 7 11 9 7 7 7 6 3 1 3 3 4 3 4 7 11 8 6 2 5 9 10 10 13 26 35 34 33 33 30 29 26 25 27 26 25 24 23 23 22 21 21 19 19 18 17 17 17 16 15 14 14 14 14
2 3 7 11 9 5 2 3 6 2 3 1 2 3 5 4 1 1 1 2 1 4 1 4 12 11 6 4 6 8 8 8 8 11 9 8 9 10 7 4 1 1 3 5 6 6 7 7 7 8 4 4 4 6 7 3 8 27 35 34 34 32 30 29 26 26 25 25 25 23 23 22 22 22 21 20 19 17 17 18 17 16 15 15 14 13
4 3 1 4 5 3 2 1 4 5 3 3 3 4 2 1 2 1 2 2 1 5 3 1 6 7 3 4 11 12 10 10 11 10 9 10 11 9 8 9 8 7 6 6 6 4 3 4 7 6 3 2 3 2 12 6 1 15 28 32 34 34 33 31 28 26 24 24 24 24 24 23 22 23 22 21 20 19 18 18 18 18 17 16 15 14
4 2 1 1 0 2 2 3 1 4 3 3 3 4 1 2 2 1 2 3 1 5 5 2 2 1 1 0 7 12 11 10 11 10 10 11 11 9 9 9 7 6 6 5 5 4 4 3 2 3 4 3 3 3 7 7 5 12 22 27 28 29 31 30 27 25 24 23 23 22 24 24 23 22 22 21 20 20 20 20 19 19 18 18 17 15
3 2 3 2 3 3 1 1 3 3 1 1 2 3 3 2 2 2 2 4 3 4 6 5 1 1 1 2 1 7 9 10 11 11 10 10 10 10 10 9 7 6 8 8 7 7 7 6 7 7 7 3 5 4 3 6 12 14 19 23 22 23 27 28 26 25 24 23 22 20 21 24 25 23 22 21 21 21 22 21 20 19 19 19 18 17
3 2 1 3 3 3 3 4 5 4 2 1 1 3 4 4 2 2 3 3 1 3 5 7 5 1 1 2 0 2 7 11 12 12 12 11 12 10 10 11 9 8 9 10 8 9 10 10 11 13 12 6 3 4 7 2 5 8 12 11 10 14 16 16 20 23 24 24 23 20 19 21 25 25 23 22 21 21 22 22 21 20 20 19 19 19
3 2 1 1 3 5 7 8 6 2 2 3 1 3 4 2 2 2 1 2 4 6 5 6 6 2 1 1 1 2 5 12 12 12 12 11 11 11 11 12 11 10 11 10 9 9 11 11 11 13 16 12 8 9 9 7 6 6 9 6 7 8 5 6 14 18 20 22 22 22 19 18 22 24 25 25 23 22 22 22 23 21 20 20 20 20
5 2 2 4 2 3 3 3 3 2 3 3 3 3 2 2 4 4 3 3 4 5 6 5 4 4 3 2 2 3 2 12 13 10 12 11 10 11 12 12 11 10 10 9 8 9 12 12 11 12 14 13 11 11 10 7 5 6 11 10 12 13 11 12 18 18 19 21 21 22 21 19 19 19 22 26 25 23 22 21 23 23 22 21 20 21
3 2 2 3 3 4 5 5 4 5 3 2 4 2 2 5 6 4 2 3 4 3 7 6 3 3 5 6 5 4 3 10 15 12 12 11 9 10 12 11 10 10 10 8 8 9 12 13 12 13 14 14 13 13 11 9 6 6 9 9 9 12 13 13 14 15 17 18 18 20 21 20 18 16 17 21 23 23 23 22 22 23 24 24 22 22
1 1 2 4 4 3 2 0 2 4 2 2 5 4 3 9 10 5 3 5 3 1 4 7 6 4 7 9 8 6 6 11 15 14 12 11 10 10 11 10 9 9 10 9 7 8 11 11 12 13 13 13 13 12 12 10 8 8 10 9 7 7 8 8 7 9 12 13 14 17 18 18 18 15 13 15 18 19 19 21 24 24 24 25 25 24
1 1 3 6 4 1 3 3 3 4 1 1 6 4 6 11 9 4 4 4 4 2 3 7 13 12 11 11 8 7 9 11 12 12 12 11 11 10 10 11 10 9 9 9 7 8 9 10 13 15 13 12 13 13 14 13 12 14 16 14 11 9 9 7 6 6 7 9 10 12 13 15 16 15 14 14 16 15 13 13 17 22 25 27 27 25
2 3 4 4 1 4 3 4 7 5 5 7 8 5 4 7 7 5 5 5 7 6 4 6 15 16 14 15 13 10 9 10 10 10 10 11 11 10 10 12 12 12 11 9 8 9 9 9 10 14 16 17 16 15 16 16 15 16 17 16 13 12 12 10 7 7 6 8 8 9 10 12 13 12 12 14 15 16 15 11 11 13 19 25 29 30
2 2 6 6 4 5 3 5 7 6 8 9 7 5 5 5 6 4 4 6 7 8 7 8 12 14 12 14 14 11 9 10 10 10 10 12 12 11 11 12 12 13 12 11 10 9 8 8 10 13 16 17 19 18 17 16 16 15 16 17 16 14 13 14 12 9 7 7 7 7 7 8 9 10 10 11 12 13 15 15 13 13 12 16 24 30
2 2 6 8 7 5 2 3 5 7 7 7 6 7 8 8 6 4 3 7 9 11 13 12 12 10 8 10 12 10 10 10 9 8 9 11 11 11 12 13 12 12 11 12 11 10 8 8 10 13 15 17 19 20 19 18 18 18 16 18 19 18 15 16 15 14 13 11 8 6 3 2 6 8 6 4 6 9 12 16 18 15 12 10 13 19
3 3 5 5 5 6 5 3 3 4 4 5 6 6 6 6 6 5 5 8 9 11 12 13 14 8 4 8 11 10 10 10 9 8 7 9 11 12 12 12 12 12 11 10 9 9 8 9 10 12 14 16 17 18 19 20 20 19 18 18 20 21 20 20 20 19 18 16 14 12 10 7 4 2 2 2 2 7 11 16 20 19 15 13 12 12
2 2 4 3 3 4 6 4 3 3 3 4 5 4 3 2 3 3 4 4 6 11 13 12 10 7 6 10 11 10 10 11 10 9 8 8 10 12 12 11 11 11 11 9 8 8 7 8 10 11 13 15 16 16 17 20 21 21 20 19 20 21 22 22 22 21 21 20 18 18 16 14 12 8 5 3 1 6 9 11 16 18 17 17 16 13
2 2 3 2 1 2 6 7 4 2 2 3 2 3 3 1 2 3 1 3 7 10 11 8 7 9 11 11 11 10 11 11 8 7 8 9 11 12 11 11 10 10 9 8 7 7 7 8 10 12 14 16 17 16 16 18 20 21 20 20 19 21 23 22 20 21 20 20 21 20 18 16 14 13 10 7 3 3 7 10 14 17 17 17 17 15
2 2 3 2 0 2 6 6 2 1 3 3 1 4 5 3 3 1 2 4 9 7 7 8 9 12 13 12 12 12 11 10 8 7 7 7 9 10 10 11 9 8 9 8 7 7 8 10 12 13 15 17 17 16 15 17 19 20 21 22 20 20 22 21 20 20 19 19 20 19 18 16 12 10 10 8 6 5 5 8 11 14 16 16 15 16
3 2 3 2 1 2 6 3 2 1 4 1 5 7 6 2 6 4 2 5 10 12 13 13 12 12 12 10 11 11 11 11 10 9 7 7 7 9 10 10 9 8 9 7 6 7 9 11 12 12 15 17 16 15 14 15 18 19 19 21 22 21 21 20 19 19 18 17 17 17 17 16 12 8 8 8 7 6 6 8 10 13 15 16 16 16
4 2 2 2 1 1 4 2 3 3 1 4 6 5 6 5 3 4 5 8 9 13 15 13 11 10 10 10 11 11 12 12 9 8 8 8 8 8 9 10 8 8 8 10 10 10 11 11 10 10 13 16 15 14 14 13 15 17 17 18 19 19 19 19 18 18 18 17 16 16 15 14 13 10 9 9 8 7 8 8 11 13 15 16 17 17
4 3 2 2 1 1 1 1 0 1 1 3 2 1 2 5 5 6 5 5 7 9 10 10 11 10 9 12 13 11 11 11 8 5 7 9 10 10 10 10 10 10 11 15 16 14 13 11 10 9 12 15 14 14 15 12 14 17 17 15 15 16 17 19 18 16 17 17 15 16 15 12 12 12 12 12 11 10 10 10 11 13 14 15 15 15
2 3 2 2 1 2 1 1 2 2 0 3 0 3 4 7 8 7 6 3 4 8 8 7 10 11 10 10 11 10 10 9 6 4 7 9 10 10 11 12 14 15 16 18 17 15 13 11 10 10 14 16 13 15 15 12 13 16 16 14 14 13 15 17 16 14 16 16 14 15 16 13 12 14 15 14 14 12 12 13 14 14 13 12 13 13
1 1 1 2 1 3 1 1 0 1 2 4 2 6 7 8 8 8 6 1 2 7 9 7 7 10 10 9 8 8 8 7 4 2 5 8 9 9 9 11 13 16 18 18 15 12 12 12 11 13 16 16 15 16 17 15 15 16 15 14 14 13 13 14 13 12 15 15 13 13 15 14 13 13 14 13 13 12 10 11 13 13 12 11 11 12
2 2 1 0 2 3 2 1 0 1 2 3 4 7 7 7 7 8 5 3 5 3 8 7 8 10 11 9 8 6 6 5 5 4 6 10 12 11 12 12 13 15 18 17 14 12 13 15 15 16 16 16 16 18 19 18 17 15 13 13 14 14 13 11 11 11 13 13 13 12 13 13 13 13 13 11 11 11 10 9 10 11 11 11 11 11
1 1 2 2 3 3 2 1 0 1 1 0 5 7 5 5 6 6 4 5 5 5 6 8 12 12 10 9 7 6 5 6 6 7 9 10 10 11 14 15 16 17 16 14 13 14 16 16 15 15 15 16 17 17 18 18 17 15 13 12 13 12 11 10 9 9 11 11 11 13 13 13 13 14 14 12 12 13 13 13 12 12 11 11 12 12
2 2 2 2 3 2 2 2 1 1 2 1 6 6 6 4 2 3 2 2 5 8 9 11 12 11 10 10 8 7 7 8 9 9 9 9 8 9 13 16 16 15 13 13 15 16 16 15 14 14 15 15 16 16 16 16 16 14 13 12 12 11 10 9 7 8 10 8 8 11 14 14 14 14 14 15 16 16 15 15 15 14 12 10 11 12
2 2 2 3 2 2 1 1 1 1 2 2 5 4 5 2 4 2 2 5 7 9 9 9 8 8 10 10 9 9 9 9 9 8 8 7 8 10 14 14 13 11 11 14 16 14 13 13 12 12 13 14 14 15 15 14 15 14 14 14 14 13 12 10 9 10 10 7 5 9 12 14 15 15 14 16 17 17 16 16 16 15 13 11 10 10
0 1 1 1 0 1 1 1 2 2 1 5 5 3 2 3 3 3 4 5 6 7 6 6 6 7 9 9 8 9 8 7 7 8 7 6 8 11 13 13 12 11 12 14 14 12 11 11 10 9 10 11 13 13 14 14 14 14 15 15 15 15 14 13 12 13 10 6 7 9 10 11 14 15 15 17 16 15 15 16 17 15 12 9 9 10
2 1 2 0 1 1 3 2 3 1 4 7 6 4 5 5 5 6 6 5 5 5 5 5 6 8 9 9 9 7 6 6 7 7 6 6 7 10 12 13 13 13 12 11 11 10 9 8 7 7 8 10 11 11 12 12 13 14 15 16 15 15 15 16 15 14 12 9 9 9 8 10 12 13 14 15 15 15 15 15 17 16 11 9 9 11
0 3 3 0 1 1 3 4 4 3 5 8 7 5 6 6 5 5 6 5 4 5 5 5 6 7 8 8 7 5 4 5 6 6 7 7 7 9 12 14 13 12 10 10 9 7 6 6 6 7 8 9 9 9 10 10 11 12 13 14 14 14 16 17 16 16 14 13 11 9 9 10 12 12 13 14 14 14 14 14 16 16 13 9 10 11
0 2 2 1 2 2 1 2 4 4 6 8 8 7 7 6 4 4 5 5 4 5 6 6 6 8 7 7 7 5 4 5 6 6 6 5 5 9 12 12 11 10 9 7 5 4 4 5 6 7 8 8 8 8 9 10 10 11 11 12 12 13 14 16 16 16 16 15 13 10 10 11 12 12 13 14 13 12 12 13 16 17 15 14 15 15
2 2 1 1 1 1 2 2 3 5 6 7 7 7 6 6 5 6 7 6 5 6 7 7 7 7 6 5 6 5 3 3 5 5 6 6 7 9 11 10 9 8 6 5 4 4 5 6 7 7 8 8 8 9 10 10 10 10 11 11 12 12 13 14 15 16 16 16 16 13 10 10 11 12 12 13 13 13 13 15 16 17 18 18 18 18
1 2 2 1 1 1 1 2 4 4 5 5 5 5 5 6 7 7 7 7 6 6 7 7 6 7 7 7 7 7 4 4 5 6 6 5 6 8 10 9 8 5 5 6 7 7 7 6 6 7 7 8 8 10 12 13 13 12 12 12 11 12 12 12 14 16 16 15 16 16 12 9 10 11 11 12 13 15 16 16 16 17 19 18 17 17
1 2 3 2 1 1 0 3 4 1 4 4 6 6 5 5 6 6 6 7 7 6 7 7 7 7 8 9 11 10 6 5 6 8 7 5 6 8 9 7 5 5 5 7 8 7 6 5 5 5 7 10 12 12 13 14 15 15 14 13 12 12 12 12 12 15 16 15 16 17 15 12 11 11 10 11 13 15 16 17 16 16 18 19 18 17
1 1 2 2 1 1 2 3 3 1 3 4 6 6 6 6 5 4 3 4 6 7 7 7 7 7 6 8 11 11 7 7 10 10 7 6 7 8 6 4 4 5 6 7 6 5 6 5 4 7 10 12 13 14 14 15 15 15 15 14 12 12 12 12 12 13 15 16 17 18 17 13 9 7 7 9 11 14 17 19 19 18 17 17 17 17
Wind_Direction
182 176 184 214 233 226 227 229 240 255 233 113 118 119 137 155 186 197 166 161 177 169 156 144 140 165 167 162 190 190 131 166 121 76 64 104 139 166 166 151 156 168 161 143 156 172 159 152 149 144 147 149 150 153 154 154 155 157 157 155 158 161 164 162 157 156 158 157 158 157 155 157 160 160 158 162 164 166 170 166 166 171 173 173 168 168
183 193 207 212 223 233 238 231 238 258 255 141 123 122 135 146 193 179 156 166 187 152 133 129 127 167 182 155 200 169 146 171 95 97 96 55 99 178 163 151 156 170 162 146 161 171 152 145 145 143 146 147 148 152 153 156 157 157 156 156 161 163 166 166 160 160 163 161 160 159 158 160 160 158 156 160 161 163 167 165 167 170 172 174 172 169
187 210 219 213 217 230 242 241 236 248 254 191 132 128 133 131 231 184 158 164 170 117 133 127 125 164 167 138 208 218 123 84 76 100 103 81 68 188 155 153 157 169 168 153 165 166 149 144 143 143 145 146 149 152 154 158 158 157 158 159 164 166 169 168 162 163 164 159 160 161 162 163 160 159 158 157 161 162 163 166 167 169 171 172 172 172
180 206 220 220 218 221 235 248 240 237 250 228 157 137 144 164 183 185 162 166 162 130 136 120 108 119 109 134 199 216 76 56 22 77 81 98 174 138 115 173 165 165 166 160 166 162 149 147 144 145 146 147 150 153 156 161 162 161 162 163 167 169 171 169 164 167 166 158 163 167 167 166 161 161 158 154 160 163 159 164 170 171 172 171 172 176
213 200 203 217 227 220 225 239 241 234 237 239 183 141 149 164 169 176 167 163 135 104 129 117 91 61 222 164 151 147 105 97 266 127 85 339 277 81 58 294 200 165 163 164 167 163 150 149 149 148 148 149 153 156 159 166 170 166 165 169 172 169 170 170 167 168 169 165 168 166 155 157 159 161 160 155 157 161 160 167 174 172 172 172 171 174
234 218 191 199 222 227 226 225 235 237 212 240 206 145 144 150 152 165 165 151 107 92 167 151 112 62 242 185 151 186 144 142 204 163 130 216 301 18 128 277 272 175 164 165 167 167 150 149 153 150 149 152 156 160 164 170 175 171 169 172 174 171 172 174 170 168 171 169 166 161 150 151 155 158 165 164 160 162 166 170 173 170 171 176 173 173
233 240 204 188 205 220 230 225 228 228 194 244 183 141 146 146 145 164 165 157 145 167 197 197 160 104 199 205 149 180 182 160 175 152 151 183 200 257 216 234 271 191 167 164 166 170 153 150 157 153 152 156 160 165 168 171 176 176 172 173 174 174 175 177 175 172 173 171 166 162 158 159 161 162 170 173 169 170 170 172 172 168 171 181 183 178
215 240 231 190 193 212 228 227 227 220 196 219 142 138 157 146 145 176 177 177 183 144 182 203 172 99 167 185 121 158 179 167 163 155 169 190 196 225 232 241 265 199 170 166 165 170 158 154 160 160 158 160 163 168 170 174 179 179 176 176 176 174 176 179 178 176 176 176 170 163 160 164 165 166 169 175 178 175 171 174 173 166 171 183 189 184
196 231 245 200 189 206 216 216 222 206 192 239 134 144 162 136 150 189 185 183 180 119 159 197 157 92 119 138 145 163 164 174 191 188 190 195 204 218 228 246 261 170 159 166 166 171 163 157 163 165 163 163 165 170 173 177 180 179 178 180 179 177 179 181 179 179 180 180 174 166 164 166 165 167 170 177 184 179 173 174 172 171 176 179 186 190
188 219 242 228 202 204 198 209 235 194 169 244 221 181 160 134 157 200 191 135 114 108 181 193 162 116 109 151 162 162 163 189 192 188 201 195 203 223 234 252 244 125 76 112 148 164 164 162 164 166 168 168 168 171 176 178 179 178 177 180 182 181 182 183 182 181 182 183 180 173 171 172 168 167 171 175 180 180 176 173 172 177 179 177 184 192
228 209 223 240 213 156 132 122 262 264 239 214 215 218 188 150 153 209 227 121 120 190 203 196 169 125 133 180 171 164 173 184 169 168 203 189 194 221 237 255 238 151 136 96 92 113 156 162 163 166 172 175 170 171 176 177 176 176 176 179 183 184 185 186 185 182 182 185 183 178 175 177 173 170 171 170 169 174 175 174 178 180 179 182 188 189
244 208 195 214 42 52 171 170 215 244 259 233 203 218 203 156 147 185 244 82 127 258 192 186 154 92 105 184 179 180 155 157 150 165 203 198 200 220 226 236 224 158 150 145 106 82 126 153 160 165 172 179 173 169 174 174 172 175 177 179 182 185 187 189 187 185 185 185 185 181 178 181 181 173 173 174 167 169 174 176 180 181 181 187 190 190
249 223 137 111 72 277 239 182 215 233 250 256 214 195 157 144 144 162 134 87 186 259 190 167 131 68 44 124 154 154 133 136 143 166 193 195 198 209 217 219 198 133 161 158 125 128 144 138 154 167 173 180 175 169 172 171 169 173 177 179 182 185 188 189 188 188 187 186 187 185 181 185 187 177 176 180 173 170 176 177 179 180 183 189 191 193
239 267 150 137 152 227 242 202 224 244 251 268 225 183 141 140 138 140 189 163 198 252 188 135 111 80 101 42 135 132 116 122 134 162 189 194 199 199 207 206 159 140 203 187 140 152 173 131 132 170 175 179 175 170 173 171 170 173 177 180 184 186 189 190 189 189 189 189 190 189 187 187 189 183 177 181 180 177 179 181 184 185 187 193 196 198
205 246 183 178 136 178 219 236 281 274 236 242 239 165 139 154 150 161 188 176 207 226 146 115 110 150 160 174 192 132 115 128 128 133 168 185 197 187 182 189 163 148 161 147 138 155 162 136 86 141 177 178 174 171 174 171 170 174 177 181 185 187 190 192 191 191 191 192 192 193 191 190 191 188 181 182 185 186 185 186 192 193 194 200 201 202
227 160 159 174 140 173 190 206 277 274 223 240 262 124 165 196 168 180 194 185 196 185 126 108 91 105 110 73 317 117 113 125 125 119 117 126 144 141 128 101 55 114 130 113 123 137 103 74 43 21 168 181 175 172 177 174 172 174 177 182 185 188 190 192 193 192 193 194 194 195 195 194 195 192 188 186 187 191 190 190 194 197 201 206 204 203
292 230 169 155 149 186 190 198 219 175 139 242 263 304 262 240 186 208 237 212 193 136 101 152 103 99 89 49 316 228 130 125 133 128 129 133 110 83 78 72 311 244 168 126 97 85 66 53 33 358 350 184 171 159 164 168 174 177 178 182 185 188 190 192 194 194 194 195 195 197 197 197 198 197 195 192 190 193 194 192 195 198 202 206 202 203
331 275 187 155 152 181 190 252 251 215 96 131 285 320 320 323 331 103 130 260 199 111 147 163 139 146 144 133 204 196 147 138 138 124 122 122 101 87 84 76 37 16 48 49 49 67 95 113 188 223 253 223 179 152 157 128 172 180 180 183 184 186 189 192 194 194 195 196 197 198 199 199 201 201 200 198 195 197 197 195 196 199 202 202 201 203
321 310 209 134 134 152 117 56 297 313 13 43 331 314 337 1 317 16 128 244 155 113 110 96 136 151 136 143 167 162 146 139 128 112 101 90 81 79 70 53 48 56 46 24 18 25 90 142 189 206 247 297 7 170 181 167 135 180 179 183 185 186 189 190 192 194 194 197 198 199 200 201 204 204 204 203 201 201 201 199 198 201 203 202 203 205
299 284 233 358 117 173 118 87 316 309 346 19 323 304 205 167 227 224 177 209 158 121 130 90 339 264 355 36 156 148 144 135 120 110 96 83 75 69 64 55 45 58 62 39 20 10 0 5 33 92 72 27 358 272 205 179 192 186 177 180 185 187 188 188 190 191 193 197 199 201 202 202 204 206 206 206 205 206 206 205 205 205 205 205 206 208
300 258 172 191 208 186 142 146 197 230 184 174 257 269 253 233 262 286 250 213 170 129 138 133 122 237 96 23 122 138 134 124 115 109 96 86 81 67 63 62 41 44 62 47 30 21 18 29 42 66 86 144 209 254 280 206 205 197 183 182 183 184 183 183 186 188 189 194 195 200 204 204 205 206 207 209 210 211 210 210 212 210 208 210 208 207
330 319 114 152 183 180 190 197 206 233 238 216 217 227 239 228 216 281 290 263 150 103 136 140 119 63 83 105 142 174 130 117 110 106 100 93 90 77 65 65 49 44 56 45 34 22 23 48 52 52 67 94 145 55 36 94 186 195 193 187 175 178 176 172 180 187 191 193 193 195 202 206 207 207 207 209 213 216 214 212 215 214 211 213 213 209
321 320 337 260 198 174 190 187 179 224 332 355 310 248 271 265 125 88 318 323 41 67 93 107 101 95 257 94 1 278 129 115 109 107 108 102 95 87 76 70 60 54 53 41 36 27 28 53 66 66 71 75 80 75 73 94 111 155 180 148 124 164 178 170 189 198 197 196 196 196 198 201 205 210 210 209 213 218 217 213 215 217 215 216 218 213
325 346 339 307 290 125 144 163 138 56 21 354 263 241 317 12 91 107 161 145 91 99 100 79 86 132 153 84 37 297 152 120 114 108 106 103 97 93 84 75 68 63 56 40 31 32 34 45 60 71 73 70 69 74 89 120 139 175 179 155 146 168 182 191 204 210 205 204 205 204 204 198 199 210 214 211 212 217 219 218 217 219 220 218 220 218
332 354 2 349 355 49 37 13 3 352 358 332 272 260 59 48 53 60 86 77 69 121 127 119 104 116 144 147 150 223 204 125 118 114 109 105 101 97 88 79 74 71 66 48 31 38 42 40 46 58 62 57 53 55 70 100 136 175 178 167 167 176 174 180 200 210 210 214 213 210 213 209 204 212 221 218 215 216 219 221 220 222 222 219 220 221
347 339 26 60 50 55 73 55 297 292 282 281 278 271 67 56 51 60 78 67 62 74 112 123 121 120 152 147 140 163 156 120 114 115 112 109 106 104 98 89 81 78 79 67 45 46 49 42 41 50 60 63 60 65 73 84 102 115 125 136 152 160 148 147 172 195 211 220 217 215 220 220 214 214 224 227 219 217 223 225 224 224 223 221 221 222
11 356 48 80 66 8 193 208 280 279 244 300 286 290 53 57 55 68 83 82 114 105 67 127 137 143 154 142 134 154 139 114 111 113 112 112 109 108 106 100 91 83 84 80 65 59 59 52 44 41 44 48 56 72 78 70 63 68 81 98 108 108 109 119 142 162 189 206 214 223 228 226 221 218 225 227 218 220 232 235 234 231 226 222 220 222
39 18 18 59 55 266 275 348 337 337 8 341 309 310 40 67 61 30 48 99 129 110 78 139 141 141 151 149 150 158 136 114 112 110 111 113 112 112 109 105 100 92 86 85 76 66 64 64 58 49 42 35 35 50 64 63 60 61 67 74 79 86 91 96 115 138 158 180 197 218 225 224 224 224 229 228 223 228 237 251 279 270 241 226 219 218
74 17 347 353 323 271 285 350 340 353 10 346 335 4 20 62 82 33 29 89 119 125 136 159 143 135 140 139 137 136 121 111 107 104 111 119 121 121 111 101 96 90 84 81 74 65 61 64 66 61 52 41 36 38 45 52 56 61 64 62 62 71 78 78 85 98 111 136 164 188 209 220 224 226 231 232 233 237 239 246 275 297 276 238 222 217
62 3 347 355 339 301 299 11 360 8 10 349 12 49 29 23 41 23 37 87 109 130 143 142 122 112 119 118 116 117 112 106 101 100 109 114 111 104 98 94 92 87 82 78 75 67 59 59 66 69 63 53 45 39 36 39 46 51 56 58 59 62 67 70 71 72 74 82 94 108 128 191 218 219 223 244 248 246 246 244 250 269 277 250 227 222
69 343 333 3 0 335 339 5 359 348 342 338 359 37 44 18 1 10 66 99 115 128 134 124 110 102 102 105 102 101 100 94 84 75 78 92 96 92 89 89 89 88 79 70 70 70 60 52 54 64 69 64 57 49 42 40 41 42 45 52 56 57 59 63 65 66 67 67 65 66 66 63 70 168 177 52 279 248 249 246 247 260 267 246 230 228
74 319 313 23 47 332 317 310 270 267 298 320 331 351 33 33 339 2 60 89 114 127 125 116 114 127 134 120 111 103 98 92 81 74 70 76 87 88 84 80 79 85 85 73 59 56 55 47 39 46 64 65 57 55 53 48 45 42 41 48 57 60 59 59 61 63 62 59 58 58 58 60 62 64 72 71 299 258 259 254 251 259 266 253 240 236
5 345 328 14 67 280 290 285 258 232 288 293 302 320 305 290 34 356 343 91 99 123 133 129 137 144 140 133 128 121 112 105 99 96 92 92 93 92 92 89 79 76 83 81 68 56 53 48 36 36 55 60 48 45 52 53 49 45 42 46 58 64 61 56 56 56 54 53 54 56 56 59 61 59 59 60 37 295 274 268 260 259 262 258 249 249
342 6 337 329 2 278 288 288 280 144 249 246 55 9 301 239 153 241 286 94 97 111 126 128 137 138 135 138 138 135 129 120 116 113 106 106 109 105 104 102 97 91 89 84 79 68 57 52 42 37 52 60 47 40 48 55 54 48 44 47 55 61 59 53 50 48 46 47 49 51 52 52 53 52 45 39 34 16 328 294 279 270 268 267 264 263
5 21 338 330 15 314 314 332 104 187 249 224 53 19 339 267 166 176 346 62 103 118 118 123 137 137 134 141 139 130 126 123 121 121 111 96 99 111 114 110 110 112 108 103 98 84 69 62 48 39 51 57 45 36 41 53 57 51 45 49 54 58 56 51 47 43 40 40 40 42 45 46 48 48 30 12 3 358 349 332 313 297 284 276 272 269
14 18 330 306 219 270 327 15 139 199 270 53 50 16 360 15 87 110 43 34 82 113 119 126 135 129 121 127 129 127 130 129 121 123 124 105 92 105 114 114 117 116 116 123 118 94 77 65 45 42 59 57 42 31 28 44 62 58 49 52 56 56 51 46 44 39 32 31 31 29 32 35 37 39 29 17 3 336 323 319 316 315 305 287 274 266
31 37 9 343 257 242 307 337 150 141 72 51 61 41 18 33 60 98 89 43 63 98 114 126 129 122 110 115 123 128 129 125 119 130 137 119 98 95 101 106 111 104 102 111 109 91 75 61 38 41 66 62 43 24 18 36 65 61 49 49 54 57 51 44 42 38 27 23 23 21 20 21 22 22 21 22 14 352 332 322 315 316 312 299 286 276
84 99 79 79 319 308 350 332 343 63 269 271 94 76 59 63 70 84 94 77 78 99 107 117 122 121 113 110 116 120 117 118 130 159 148 126 110 108 110 104 96 88 84 90 92 82 72 60 39 42 63 63 41 15 14 41 67 59 47 40 43 55 57 47 44 39 25 17 14 14 16 17 14 10 9 13 14 3 346 336 329 320 311 299 292 289
21 83 56 93 286 307 357 184 285 74 266 276 31 61 57 65 68 67 67 358 238 132 131 135 118 111 110 105 102 103 105 111 120 131 122 111 99 93 96 90 83 82 80 75 70 65 61 57 50 47 51 49 32 17 26 50 61 55 47 37 33 42 51 48 44 33 17 13 11 10 10 13 13 8 1 359 2 1 351 340 329 316 306 301 293 289
344 336 319 221 248 281 303 269 49 93 246 265 63 64 62 64 62 69 77 284 281 127 133 138 113 104 109 106 90 75 84 111 120 96 84 86 80 74 77 78 73 72 69 62 54 53 56 56 51 45 38 34 30 28 33 43 48 48 45 37 30 30 29 34 37 22 7 7 10 6 3 6 6 3 357 348 341 339 337 335 329 316 309 314 312 299
250 258 238 236 255 265 270 272 70 93 259 2 67 55 44 51 60 90 147 249 303 40 79 97 98 99 101 97 90 87 99 112 108 88 79 81 79 73 72 71 69 65 60 55 52 52 52 49 43 38 33 30 30 30 28 31 36 39 35 27 24 20 10 12 22 10 357 360 2 357 358 1 356 350 350 346 337 329 326 327 333 333 327 324 323 317
187 190 197 217 260 265 244 245 131 91 307 44 78 50 30 52 109 155 186 296 18 47 64 83 94 97 93 90 95 103 101 93 87 82 80 82 83 80 74 69 66 63 57 58 59 55 50 44 34 28 26 25 26 25 22 24 26 24 19 15 14 7 357 360 12 0 345 345 352 349 349 352 349 344 343 344 342 338 335 333 332 335 340 340 332 327
176 158 189 195 214 231 233 258 140 167 297 42 89 49 23 81 169 178 67 51 49 52 62 78 88 91 93 95 93 89 87 84 85 88 88 88 91 92 87 79 71 64 58 60 61 55 48 44 35 24 18 19 21 20 17 17 15 12 11 10 7 3 358 359 360 346 332 330 354 353 345 345 345 341 338 340 340 337 337 338 333 327 331 345 346 340
91 137 198 196 96 171 174 231 230 211 55 65 88 97 75 108 130 102 78 66 57 58 64 70 69 74 88 97 93 89 94 100 104 105 102 99 98 95 94 91 83 72 64 60 59 54 43 37 31 25 21 18 17 15 13 12 10 8 7 4 359 359 358 355 347 337 331 339 356 348 336 336 338 336 335 337 335 330 329 337 341 332 318 325 348 357
354 130 163 277 333 111 143 183 241 247 76 83 100 120 105 81 68 84 93 80 68 78 85 85 77 69 75 86 86 85 95 105 111 116 112 104 100 97 96 94 86 77 70 63 58 48 34 25 22 25 26 22 16 10 7 6 3 359 357 353 348 346 347 347 344 340 340 344 340 331 324 323 325 326 328 328 327 328 330 336 346 346 333 325 346 357
144 124 136 319 345 65 122 160 175 155 113 108 110 109 98 83 64 74 87 83 78 83 86 100 108 96 85 88 89 87 98 103 104 107 102 95 96 98 95 90 83 80 76 67 55 39 24 19 22 25 22 17 10 3 359 357 353 348 345 343 341 338 337 338 338 337 335 330 321 316 316 316 316 317 319 319 325 337 342 341 344 349 350 345 347 347
268 96 104 82 56 53 68 167 155 137 126 120 115 112 109 105 81 61 76 87 91 91 89 93 102 103 98 97 101 103 98 94 97 101 100 97 95 94 92 88 83 79 73 60 47 36 29 22 19 19 13 4 356 352 348 343 339 337 335 335 337 335 332 332 333 331 328 323 315 309 308 311 312 308 307 315 326 340 346 340 335 337 339 336 333 330
338 14 34 189 193 131 154 142 91 100 120 123 123 131 137 130 107 80 79 83 72 78 92 95 96 105 112 116 116 116 103 87 96 107 110 109 101 95 92 90 85 74 55 41 43 46 42 30 15 4 354 344 341 342 341 337 334 334 331 330 332 333 330 329 328 324 322 320 315 309 300 300 306 307 311 321 325 328 331 329 325 324 323 321 320 317
325 354 349 248 241 224 158 29 25 73 103 78 73 98 128 137 128 117 115 117 108 107 118 125 131 142 156 160 145 137 137 121 104 98 96 93 94 99 97 90 79 62 39 41 42 37 32 23 358 339 334 337 347 352 349 343 339 336 332 326 323 324 325 325 324 322 320 316 313 308 299 289 294 306 321 332 326 319 318 319 318 317 314 311 311 309
25 338 333 355 6 224 266 1 356 108 117 47 30 46 60 85 106 117 136 148 153 154 150 153 165 171 172 166 154 150 161 161 131 114 105 95 89 91 89 78 66 63 53 39 28 15 357 327 311 331 356 1 0 356 347 341 337 334 333 329 323 317 315 315 315 316 316 313 310 307 298 281 273 283 301 318 322 318 315 312 310 309 308 307 308 308
40 330 346 30 64 86 53 12 356 81 101 40 15 22 27 37 62 90 128 161 175 179 171 166 173 178 178 162 146 139 139 142 135 128 123 121 110 96 85 80 80 72 48 22 357 323 303 307 356 33 27 11 358 347 340 337 333 328 327 327 325 319 313 311 309 309 310 310 311 310 301 281 261 269 287 297 306 309 309 306 304 304 306 306 307 309
Height
751 766 773 772 770 764 758 755 753 749 750 764 773 785 796 798 801 794 785 782 779 790 799 800 807 806 804 805 798 794 793 793 793 792 793 793 792 793 793 795 796 797 796 794 797 800 802 805 808 811 814 817 821 824 826 828 830 832 834 836 839 841 844 845 846 848 849 850 852 853 854 856 856 857 858 859 860 860 861 861 862 862 862 863 864 864
753 771 772 763 760 754 750 747 745 747 748 759 771 782 791 793 795 785 780 781 775 786 797 795 806 809 801 802 799 794 796 796 794 794 795 795 794 793 793 795 796 795 794 794 797 799 801 804 807 810 813 816 820 823 826 828 830 832 833 835 838 840 842 844 846 847 849 850 851 852 853 855 856 857 858 859 860 860 861 861 862 862 862 863 863 864
765 771 763 752 749 747 747 744 743 746 747 756 768 782 790 792 796 788 776 778 777 786 797 795 807 812 802 801 798 795 797 796 794 793 794 795 795 795 794 794 794 796 796 795 797 798 800 803 806 810 813 816 819 822 825 828 830 831 833 835 837 839 841 843 845 847 848 850 851 852 853 854 855 856 858 859 859 860 861 861 862 862 862 863 863 864
772 765 752 744 743 746 748 745 744 747 748 753 763 779 789 787 798 799 784 781 779 782 792 796 807 813 808 804 800 799 798 796 796 794 792 793 793 795 795 794 794 795 797 797 797 797 799 803 806 809 812 815 819 822 825 827 830 831 832 834 836 838 840 842 844 846 848 849 851 852 853 854 855 857 858 859 860 860 861 862 862 863 863 863 863 864
762 749 740 740 742 744 749 747 745 751 754 751 752 768 780 778 786 790 782 780 781 783 787 796 816 820 811 810 808 803 800 800 802 798 796 794 792 793 794 794 793 793 795 797 797 797 798 802 805 808 812 815 818 821 824 826 829 830 831 833 835 837 839 841 843 845 847 848 850 851 852 854 855 856 858 859 860 860 861 862 862 863 863 863 864 864
751 736 731 741 743 742 747 749 746 750 756 753 746 751 761 767 776 781 779 783 798 807 793 792 824 834 815 811 813 807 805 808 807 801 800 799 795 795 796 795 795 792 792 794 795 796 798 801 804 807 811 814 817 820 823 825 828 829 831 833 835 836 838 840 842 844 846 847 848 850 851 853 854 856 857 858 859 860 861 862 862 863 864 864 864 864
743 730 728 738 743 743 747 748 741 740 754 758 744 739 748 758 769 777 778 787 805 810 789 780 811 836 827 815 813 811 812 812 808 803 802 801 799 798 797 796 796 793 791 792 794 794 797 800 803 806 810 813 816 819 822 825 827 828 830 832 834 836 838 840 841 843 845 846 847 849 850 852 854 855 856 858 859 860 861 862 863 863 864 865 865 865
736 733 732 734 739 745 748 748 737 732 751 756 735 732 745 754 767 773 773 783 787 784 783 779 791 821 833 823 815 814 816 814 808 805 803 802 801 800 798 796 794 793 790 791 793 794 796 799 802 805 809 812 814 818 821 824 826 827 830 832 834 836 837 839 841 842 844 845 846 848 850 852 853 855 856 858 859 860 861 862 863 863 864 865 865 865
729 735 736 732 739 746 744 740 730 727 744 744 726 729 738 747 764 768 769 780 776 779 801 792 781 814 836 824 816 815 816 817 811 806 804 802 801 799 798 795 793 791 789 789 790 792 794 797 801 804 807 811 814 817 820 823 825 827 829 832 834 836 837 839 841 842 843 845 846 848 850 852 853 854 856 857 859 860 861 862 863 864 864 865 865 866
726 726 725 727 737 740 734 727 721 727 738 731 723 729 733 742 758 763 772 781 779 793 813 794 778 813 838 826 818 818 816 815 811 806 803 801 800 799 797 794 792 791 790 789 789 790 793 796 799 803 806 810 813 815 819 822 824 826 829 831 833 835 837 838 840 842 843 845 846 848 850 851 853 854 856 857 858 860 861 862 863 864 864 865 866 866
720 715 715 721 726 725 723 723 720 724 728 724 727 736 741 747 754 763 767 769 787 805 803 786 773 797 830 828 816 812 807 804 806 806 803 800 799 799 796 794 791 791 791 790 790 790 793 795 798 802 805 809 812 814 818 820 823 825 828 830 833 835 836 838 840 841 843 844 846 847 849 851 852 854 855 856 858 859 861 862 863 864 865 865 866 867
721 721 720 714 713 715 721 726 723 721 721 725 735 742 753 759 760 771 770 769 798 807 786 777 773 787 822 826 809 801 796 795 801 803 802 801 801 799 796 793 790 789 790 790 791 792 793 795 797 800 804 807 810 813 816 819 821 824 827 830 832 834 836 837 839 841 842 844 846 847 849 850 852 853 855 856 857 859 860 861 862 864 865 865 866 867
731 728 722 716 714 715 726 736 734 729 726 733 741 748 767 780 781 792 791 788 803 795 771 769 777 798 820 813 799 796 794 795 797 796 796 797 799 798 794 791 789 790 791 790 791 793 793 794 796 799 802 805 808 811 814 817 820 822 825 828 831 833 835 836 838 840 842 843 845 847 848 850 851 853 854 856 857 858 860 861 862 863 865 866 866 867
744 733 722 726 726 718 726 743 749 745 738 743 749 753 772 788 800 813 806 800 801 786 767 764 782 816 824 805 796 793 791 793 794 793 792 792 795 795 792 789 790 792 792 790 790 792 793 793 795 798 800 803 806 809 811 814 817 820 823 826 829 831 833 835 837 839 841 842 844 846 848 849 851 852 854 855 856 858 860 861 862 863 864 865 866 867
759 755 734 731 733 725 727 736 743 744 740 743 739 742 762 773 790 806 802 800 798 783 773 774 794 822 822 805 794 788 788 790 791 792 791 790 790 789 789 788 789 792 791 789 789 791 792 793 795 798 799 801 804 807 809 811 814 817 820 824 827 829 832 833 835 837 839 841 843 845 847 849 850 851 853 855 856 857 859 860 862 863 864 865 866 867
754 755 732 723 724 724 729 728 727 737 747 742 730 741 758 753 761 777 776 776 775 779 790 795 805 812 805 801 795 789 792 791 790 792 792 792 789 787 792 794 795 795 791 790 791 791 792 794 797 799 800 801 803 806 808 809 811 814 817 821 824 827 830 832 833 835 837 840 842 844 846 848 849 851 852 854 855 856 858 860 861 862 863 865 866 867
758 753 727 723 726 722 726 727 722 734 750 746 741 752 749 732 741 763 768 760 760 790 812 809 816 819 811 815 811 800 799 794 792 793 792 794 792 792 799 802 801 798 792 791 792 793 795 798 799 800 800 801 803 805 807 808 809 810 813 817 821 824 827 830 832 833 836 838 840 842 844 846 848 850 851 852 854 855 857 859 860 861 863 863 865 866
759 758 732 725 736 726 718 724 722 722 735 748 755 753 738 729 737 754 773 774 772 803 818 806 813 822 821 827 818 803 801 796 793 792 791 794 795 797 801 800 799 798 795 793 793 796 798 800 801 799 799 801 803 804 804 807 808 808 810 813 817 821 824 827 830 832 834 836 838 841 842 845 847 848 850 851 853 855 856 857 859 860 861 862 864 865
750 763 744 725 735 730 717 730 738 727 725 739 747 740 741 757 762 760 774 781 783 808 825 820 819 816 816 820 810 802 801 795 793 793 794 797 798 800 800 799 800 801 801 798 795 798 799 800 801 800 801 804 805 805 804 807 810 809 810 812 814 818 820 823 827 829 832 834 836 839 840 843 845 846 849 850 852 853 854 856 857 858 860 861 863 864
746 764 761 735 729 733 731 741 754 748 735 734 739 738 742 756 763 759 762 766 777 805 828 838 839 827 820 815 805 801 798 794 795 797 798 800 801 801 801 802 803 803 804 802 799 800 798 799 801 801 804 806 807 808 807 809 811 809 810 812 813 816 818 821 824 826 830 833 835 837 838 840 843 845 847 849 851 852 853 854 855 857 858 859 861 862
745 757 764 747 733 740 748 749 751 753 749 748 753 754 751 749 749 753 754 748 759 793 820 835 842 833 820 814 809 803 797 794 796 797 799 802 801 802 802 803 804 803 804 805 803 802 800 800 801 802 805 806 807 809 810 812 812 809 810 812 813 816 818 820 823 825 828 830 832 835 836 838 840 842 846 847 849 851 851 853 854 855 857 858 859 861
754 756 759 755 749 752 753 742 737 742 745 749 754 754 752 751 752 764 770 752 749 780 802 816 836 834 815 810 811 803 795 793 794 796 801 803 802 804 804 804 805 805 806 808 806 805 802 801 803 804 806 807 808 811 812 814 815 815 816 815 815 818 820 821 823 825 826 827 830 833 835 837 838 840 843 845 848 849 850 852 853 854 856 856 858 859
752 755 759 759 753 749 743 733 732 736 735 740 746 745 745 747 751 770 785 774 770 785 788 796 827 834 813 806 810 806 797 793 794 797 799 802 803 805 806 806 807 807 807 809 809 808 807 805 806 807 808 808 809 811 813 814 817 819 819 818 819 821 824 825 825 825 826 826 828 831 832 835 837 839 841 843 846 848 849 851 852 853 854 855 856 858
751 759 766 764 751 740 737 732 730 733 736 744 746 741 743 749 749 758 769 771 781 795 794 805 832 833 815 809 808 807 800 794 796 798 799 803 806 806 807 808 809 810 810 810 810 810 809 808 808 809 809 810 809 810 812 814 816 818 817 816 817 818 820 823 824 824 824 825 826 828 830 832 834 837 840 841 843 845 847 849 851 852 853 854 855 856
761 768 772 776 772 764 762 758 751 746 746 752 750 742 742 745 746 751 757 765 782 792 793 812 834 828 813 809 809 809 807 799 798 800 801 804 807 807 809 809 811 813 814 815 814 812 811 811 810 810 811 811 811 812 814 816 819 820 817 814 814 815 818 820 822 822 822 823 825 827 829 831 833 836 839 841 842 844 846 848 849 850 851 852 853 854
763 769 771 784 795 796 794 788 776 764 755 753 751 745 743 745 751 758 765 778 792 792 788 805 825 822 809 807 811 811 808 803 800 800 803 805 807 808 809 811 814 815 817 819 818 816 815 814 814 814 815 815 816 817 818 820 821 821 818 815 814 815 817 819 820 821 822 822 824 826 828 830 832 835 837 840 841 843 845 846 848 848 849 850 851 852
763 767 766 776 787 789 787 779 767 760 760 760 754 748 747 751 754 759 771 785 790 793 798 801 806 813 812 810 813 809 803 801 801 801 804 806 808 809 809 812 815 816 818 820 820 819 818 817 818 818 818 818 818 818 819 819 819 818 817 816 815 815 816 818 819 820 821 822 823 825 828 830 832 834 835 838 839 841 843 845 846 847 847 848 849 850
769 775 769 769 772 770 768 765 758 756 760 762 756 752 752 754 756 762 773 780 781 796 813 804 794 805 809 805 808 807 800 800 801 801 804 806 808 810 810 812 815 817 819 820 821 820 820 820 821 820 820 820 819 819 818 818 817 817 817 817 816 815 816 818 819 819 820 821 822 825 828 830 831 832 833 835 837 838 840 842 844 845 844 845 845 846
775 782 774 770 771 765 759 760 759 758 760 759 757 758 757 756 760 765 770 772 775 792 807 800 793 801 801 797 800 799 796 799 800 800 802 804 807 809 810 812 815 818 820 821 822 822 821 822 822 822 823 822 821 821 820 819 819 819 820 819 818 817 818 819 819 820 820 821 822 824 826 828 829 830 831 833 834 836 837 839 841 842 842 842 841 842
774 781 774 773 776 769 761 761 761 762 765 763 760 761 761 760 762 764 767 769 773 782 788 788 794 801 798 795 796 794 793 796 797 799 802 804 807 809 811 814 817 819 821 822 823 823 823 823 823 824 824 823 823 823 822 822 822 822 822 822 821 821 821 820 820 821 821 822 823 824 825 826 827 828 830 831 832 832 834 836 838 839 840 840 839 840
775 782 774 773 782 779 766 763 764 766 769 769 766 764 763 766 767 766 768 771 775 782 784 786 802 811 802 794 794 794 794 797 801 805 806 806 808 810 813 816 818 821 824 825 825 825 825 824 825 825 825 825 825 825 825 825 825 824 824 823 823 823 823 822 822 822 822 823 824 824 825 826 826 827 828 829 830 830 831 833 834 835 837 838 838 838
776 783 775 775 791 791 773 768 770 767 769 774 774 770 769 771 772 769 768 770 775 783 788 795 809 813 802 793 795 797 798 802 808 810 810 811 811 813 817 819 821 824 826 827 828 827 827 826 826 826 826 827 827 827 828 828 827 827 826 826 826 825 824 824 824 823 823 824 825 825 825 826 826 827 827 828 828 828 829 831 832 833 835 835 836 837
777 784 783 784 796 793 778 773 770 770 783 789 779 772 770 770 771 771 768 768 771 777 788 800 804 800 794 793 798 801 802 806 810 810 812 815 815 817 820 821 823 826 827 830 830 830 829 829 827 827 828 828 828 828 828 829 829 829 828 828 827 826 825 825 825 825 825 825 825 825 826 826 826 827 827 827 827 827 828 829 830 831 832 832 833 834
778 783 786 787 795 796 784 774 773 787 803 796 774 765 767 767 769 773 772 771 771 772 779 788 790 788 791 794 797 802 804 806 808 809 810 813 816 819 821 822 825 827 828 831 832 831 831 830 829 829 828 829 829 829 829 829 829 829 829 828 828 827 826 826 826 826 826 826 826 826 826 827 827 827 827 827 827 827 827 828 829 830 830 831 831 832
783 785 788 788 793 796 787 783 797 811 801 778 764 763 762 761 762 768 771 770 769 772 777 784 788 789 791 793 794 798 802 803 806 808 809 812 815 817 821 824 826 827 829 831 832 832 832 831 830 830 829 830 830 829 830 830 830 830 830 829 829 828 828 828 827 827 827 827 827 827 826 827 827 828 828 828 827 827 826 827 827 828 829 829 829 829
787 790 792 790 791 796 795 797 808 807 784 767 767 766 762 762 764 772 782 780 773 773 779 785 789 789 790 792 794 797 800 803 807 809 810 812 814 817 821 824 826 827 829 831 832 833 833 832 832 831 831 831 831 830 830 830 831 832 832 831 831 831 830 830 829 828 827 827 827 827 827 827 827 828 829 829 827 826 826 826 826 826 828 828 828 827
786 793 797 797 793 794 801 801 797 794 787 780 776 769 767 771 771 777 791 790 778 775 779 783 788 790 791 793 796 798 800 806 813 815 812 812 815 817 820 823 825 827 829 831 833 833 834 834 833 833 833 833 832 831 831 831 831 832 832 833 832 832 832 831 830 829 828 828 827 827 828 828 828 829 829 828 827 826 826 826 825 825 826 827 826 825
784 790 797 803 799 792 800 805 802 806 808 795 780 771 767 770 769 772 787 793 783 777 780 783 788 791 793 796 799 801 805 814 823 820 814 813 815 817 820 823 825 827 829 831 833 834 834 834 834 834 835 834 834 833 832 832 832 832 833 833 833 833 833 833 832 832 831 830 829 829 829 829 828 828 827 826 826 826 825 825 825 825 825 826 825 824
786 787 790 802 805 799 803 809 810 814 813 796 781 773 769 770 768 772 793 803 789 778 781 783 787 792 795 798 800 802 810 823 829 822 815 815 817 818 821 824 825 827 829 831 833 833 834 834 834 834 835 835 835 835 834 833 833 833 834 834 834 834 834 833 834 833 833 832 831 831 830 830 830 829 828 827 828 828 829 829 828 828 827 826 824 823
794 794 795 804 808 804 804 806 806 808 803 788 779 776 773 771 770 787 815 815 790 779 782 783 788 794 796 798 801 805 814 825 827 821 816 816 818 820 822 824 826 828 829 830 832 833 833 834 834 835 835 836 836 836 835 835 834 834 835 835 835 835 835 835 835 834 834 833 832 832 832 831 831 831 830 830 830 831 832 832 831 830 827 824 822 821
801 799 800 804 805 802 803 805 806 804 794 782 780 779 774 775 785 806 822 809 787 783 783 783 790 796 796 800 805 810 815 817 818 818 817 818 821 822 824 826 827 828 830 831 832 833 833 834 834 835 836 837 836 836 836 836 835 836 837 836 837 837 836 836 836 835 834 833 832 832 831 831 831 831 830 830 830 830 830 829 828 826 825 822 821 820
804 803 803 804 805 802 800 802 808 807 792 780 782 780 777 789 806 812 805 793 788 789 786 788 794 796 798 803 806 809 813 814 815 818 819 821 824 825 826 828 829 831 832 833 834 834 835 835 835 836 836 837 837 837 836 836 836 837 837 837 837 838 837 837 836 835 835 834 833 832 831 830 830 829 829 828 827 827 826 825 824 823 822 821 819 818
797 802 805 802 800 801 802 805 813 813 794 778 782 787 788 798 806 801 793 791 792 791 791 794 796 796 800 804 805 809 813 815 817 820 821 823 825 826 829 830 831 833 834 834 835 836 837 837 837 837 837 837 837 837 837 837 837 837 837 837 837 837 837 836 836 835 834 834 833 832 831 830 829 828 828 827 826 825 825 824 823 822 821 820 819 818
790 796 803 799 795 801 810 809 807 802 789 780 787 795 796 795 794 791 793 795 793 794 796 798 798 798 801 803 806 811 814 816 819 821 822 825 826 828 831 832 833 835 835 836 837 838 838 839 839 839 839 838 838 837 837 837 837 837 837 837 837 837 836 836 836 835 834 833 833 832 832 831 829 828 827 826 826 825 824 823 823 822 821 820 820 819
790 790 797 797 793 795 802 801 794 788 785 784 788 792 792 791 790 790 794 795 796 797 797 798 801 802 802 804 809 812 815 817 819 820 822 825 827 828 831 832 833 835 836 837 838 838 839 840 840 840 840 839 839 839 838 837 837 837 837 837 837 836 836 835 835 834 833 833 832 831 831 830 829 828 826 825 825 824 823 823 822 821 821 820 820 820
784 783 789 793 791 789 790 790 786 785 787 787 788 790 791 792 792 791 794 796 797 797 798 800 802 803 804 807 810 813 816 817 818 820 823 824 826 828 830 831 833 835 836 837 838 839 840 840 840 840 840 840 840 839 839 838 838 838 837 837 837 836 835 835 834 834 833 832 831 831 830 830 829 828 827 826 825 824 823 822 822 821 821 821 820 820
782 782 787 791 793 795 797 792 785 785 787 788 789 791 791 792 793 793 795 798 798 798 799 801 802 804 806 809 811 815 816 817 818 821 823 824 826 828 829 831 833 834 836 837 838 839 839 839 840 840 840 840 840 839 839 839 838 837 837 837 836 836 835 834 834 833 832 832 831 830 830 829 828 827 826 825 825 824 823 822 821 821 821 821 821 820
788 787 790 792 793 796 796 792 785 785 786 786 789 792 792 793 795 795 796 798 799 799 801 802 803 806 808 810 812 815 816 817 820 822 823 825 827 828 830 832 833 834 836 837 837 838 839 838 839 840 840 840 840 839 839 839 838 837 837 836 836 836 835 834 834 833 832 831 830 830 829 828 828 827 825 824 824 823 823 822 822 821 820 820 820 819
791 792 793 792 793 794 794 792 790 790 789 788 789 791 791 793 794 795 797 798 799 801 802 803 804 806 808 810 812 814 817 819 819 820 823 825 827 828 830 832 833 834 836 836 837 838 838 838 839 839 839 839 839 839 839 838 837 837 836 835 835 834 834 834 833 832 832 831 829 829 828 828 827 826 825 824 823 823 823 822 822 821 820 819 819 819
794 799 797 795 799 802 803 801 797 797 798 797 794 793 794 793 794 796 798 798 800 801 802 803 805 806 807 808 810 812 816 817 818 820 823 825 826 829 830 831 833 834 835 836 837 837 837 838 838 837 838 838 838 838 838 838 837 836 835 835 835 833 833 833 832 832 831 830 829 828 827 826 826 825 824 824 824 823 822 821 821 821 819 818 818 817
799 802 801 802 806 806 805 802 798 798 801 800 796 795 795 794 796 798 799 799 800 801 801 803 805 805 806 807 808 811 813 815 817 819 821 823 826 828 829 831 832 833 834 835 836 836 836 836 837 837 837 837 837 838 837 837 836 835 835 834 833 833 832 832 831 831 830 829 829 828 826 825 825 824 824 824 823 823 821 820 819 819 818 817 816 815